Simultaneous Nadir Overpasses (SNOs) Predictions

Prediction of SNOs between METOP-A and NOAA-19 Satellite Orbit:

Table of predicted SNOs for the next 14.0 days since TLE Epoch: 6/29/2013
Index Date (METOP-A) Time (METOP-A) Lat,Lon (METOP-A) SZA (METOP-A ) Date (NOAA-19) Time (NOAA-19) Lat,Lon (NOAA-19) SZA (NOAA-19 ) Distance(km) Time Diff (sec)
1 07/08/2013 15:34:00 74.15, -58.72 51.78 07/08/2013 15:32:54 74.17, -61.77 51.95 92.45 66
2 07/08/2013 16:24:55 -73.52, 107.10 128.78 07/08/2013 16:23:47 -73.51, 107.08 128.78 1.14 68
3 07/08/2013 17:15:35 73.49, -85.65 51.19 07/08/2013 17:14:45 73.51, -85.65 51.23 2.62 50
4 07/08/2013 18:06:17 -73.50, 81.72 128.79 07/08/2013 18:05:51 -73.49, 81.62 128.80 3.64 26
5 07/08/2013 18:56:57 73.47,-111.03 51.19 07/08/2013 18:56:49 73.48,-111.12 51.21 3.39 8
6
